Regional Weather Roundup
Issued by NWS Columbia, SC

Home | Current Version | Previous Version | Text Only | Print | Product List | Glossary On
Versions: 1 2 3 4 5 6 7 8 9 10 11 12 13 14 15 16 17 18 19 20 21 22 23 24 25 26 27 28 29 30 31 32 33 34 35 36 37 38 39 40 41 42 43 44 45 46 47 48 49 50
000
ASUS42 KCAE 020810
RWRCAE
REGIONAL WEATHER ROUNDUP
NATIONAL WEATHER SERVICE COLUMBIA SC
400 AM EDT SAT AUG 02 2014

NOTE: "FAIR" INDICATES FEW OR NO CLOUDS BELOW 12,000 FEET WITH NO
SIGNIFICANT WEATHER AND/OR OBSTRUCTIONS TO VISIBILITY.

NOT ALL STATIONS ARE QUALITY CONTROLLED BY THE NATIONAL
WEATHER SERVICE. USE DATA WITH CAUTION...ESPECIALLY
DEWPOINT OBSERVATIONS.

SCZ001>056-GAZ040-063>065-077-020900-
...UPSTATE SOUTH CAROLINA...

CITY           SKY/WX    TMP DP  RH WIND       PRES   REMARKS
ANDERSON       CLOUDY    68  64  87 NE8       30.09R
LIBERTY        FAIR      66  32  28 NE5       30.09F
SPARTANBURG    CLOUDY    68  68 100 N6        30.09F FOG
CLEMSON        PTCLDY    69  62  78 NE7       30.10F
GREENVILLE     CLOUDY    66  63  90 N8        30.11S
GREENWOOD      CLOUDY    67  64  90 NE8       30.09S
GREER          CLOUDY    66  64  93 N7        30.09S
ROCK HILL      CLOUDY    67  65  93 NE5       30.09F
CHESTER        CLOUDY    70  70 100 N9        30.08F
LAURENS        CLOUDY    66 N/A N/A NE5       30.10R FOG


...CENTRAL SOUTH CAROLINA...

CITY           SKY/WX    TMP DP  RH WIND       PRES   REMARKS
COLUMBIA APT   CLOUDY    73  68  84 N8        30.05R
COLUMBIA OWENS CLOUDY    71  67  87 VRB5      30.06R
DARLINGTON     CLOUDY    68  64  88 N7        30.06S
FLORENCE       CLOUDY    70  68  93 N9        30.04R FOG
MCENTIRE ANGB  CLOUDY    70  70  99 NE5       30.04F
ORANGEBURG     CLOUDY    73  71  93 NE7       30.02F
SUMTER SHAW    CLOUDY    70  70 100 NE9       30.03S FOG
NEWBERRY       CLOUDY    66  66 100 N5        30.11R FOG
AIKEN          CLOUDY    68  68 100 N5        30.08F FOG
BARNWELL       CLOUDY    72  70  94 N5        30.04R
MANNING        CLOUDY    72 N/A N/A CALM      30.03S
CAMDEN         CLOUDY    68  66  94 NE7       30.06S
LANCASTER      LGT RAIN  66  66 100 N5        30.07F
WINNSBORO      CLOUDY    68  68 100 CALM      30.06S FOG


...EASTERN AND COASTAL SOUTH CAROLINA...

CITY           SKY/WX    TMP DP  RH WIND       PRES   REMARKS
MYRTLE BEACH   MOCLDY    75  73  94 N5        30.01S
N MYRTLE BCH   CLOUDY    75  74  96 N3        30.01R
CONWAY         PTSUNNY   73  73 100 CALM      30.02S
MARION         FOG       70  70 100 CALM      30.04S VSB 1
HARTSVILLE     CLOUDY    68  68 100 N6        30.07R
FLORENCE       CLOUDY    70  68  93 N9        30.04R FOG
DARLINGTON     CLOUDY    68  64  88 N7        30.06S
CHARLESTON APT CLOUDY    76  73  91 N5        30.00F THUNDER
MOUNT PLEASANT DRIZZLE   75  73  94 CALM      30.00F
WALTERBORO     CLOUDY    73 N/A N/A NE3       30.02S HAZE
BEAUFORT       LGT RAIN  76  74  93 E8        30.00R


...EASTERN GEORGIA...

CITY           SKY/WX    TMP DP  RH WIND       PRES   REMARKS
AUGUSTA BUSH F CLOUDY    70  67  90 N7        30.03F
AUGUSTA DANIEL CLOUDY    70  67  90 N7        30.05S
THOMSON        CLOUDY    69  69 100 N3        30.10S
WASHINGTON     CLOUDY    68  68 100 NE5       30.06F
CLAXTON        CLOUDY   N/A N/A N/A NE7       29.99F HAZE
SYLVANIA       CLOUDY    73  73  99 N5        30.02S
STATESBORO     DRIZZLE   73  73 100 NE5       30.00F
SAVANNAH       CLOUDY    75  73  93 N6        29.99S


...SOUTHERN NORTH CAROLINA...

CITY           SKY/WX    TMP DP  RH WIND       PRES   REMARKS
CHARLOTTE      CLOUDY    66  63  90 N7        30.10F
MONROE         CLOUDY    66  64  93 N9        30.07F
WADESBORO      CLOUDY    66  64  94 N6        30.07F
ROCKINGHAM       N/A     66  66 100 N5        30.06S FOG
RUTHERFORDTON  CLOUDY    65  63  94 N5        30.12F
ASHEVILLE      CLOUDY    65  60  84 NE3       30.15S

$$



USA.gov is the U.S. government's official web portal to all federal, state and local government web resources and services.